EUTELSAT 21B

Last updated on Thu Oct 30 2025 00:02:49 GMT+0000 (Coordinated Universal Time)

1 38992U 12062B 25302.26126669 .00000140 00000+0 00000+0 0 9995 2 38992 0.0722 9.4270 0002986 219.5692 284.5213 1.00270695 47517
UTC large
Height (km)
Speed (km/s)
/
Latitude / Longitude
Inclination (degrees)
Orbital Period (minutes)
Azimuth
Elevation
Range (km)
Doppler Factor

Next 0 passes for location: London (51.5072 / 0.1276)

Sorry there are no passes over London.